Regional Weather Roundup
Issued by NWS

Home | Current Version | Previous Version | Text Only | Print | Product List | Glossary Off
Versions: 1 2 3 4 5 6 7 8 9 10 11 12 13 14 15 16 17 18 19 20 21 22 23 24 25 26 27 28 29 30 31 32 33 34 35 36 37 38 39 40 41 42 43 44 45 46 47 48 49 50

620
ASUS43 KMKX 110500
RWRWI

WISCONSIN REGIONAL WEATHER ROUNDUP
NATIONAL WEATHER SERVICE MILWAUKEE/SULLIVAN WI
1100 PM CST WED FEB 10 2016

NOTE: "FAIR" INDICATES FEW OR NO CLOUDS BELOW 12,000 FEET WITH NO
SIGNIFICANT WEATHER AND/OR OBSTRUCTIONS TO VISIBILITY.

WIZ001-002-006>008-014>016-023>028-110600-
NORTHWEST WISCONSIN

CITY           SKY/WX    TMP DP  RH WIND       PRES   REMARKS
SUPERIOR ARPT  CLEAR      1  -9  64 NW6       30.26S WCI -11
ASHLAND        PTCLDY    -4  -8  83 W3        30.22R
HAYWARD        CLEAR     -9 -15  75 CALM      30.19R
SIREN          CLEAR     -2 -10  70 CALM      30.24R
CUMBERLAND     CLEAR      1  -8  66 NW5       30.19R WCI  -8
RICE LAKE      CLEAR      3  -4  72 CALM      30.22R
CHETEK         CLEAR     -1  -4  84 CALM      30.21R
LADYSMITH      CLOUDY    -7 -11  81 CALM      30.19R
EAU CLAIRE     NOT AVBL
MENOMONIE      CLOUDY     6  -4  62 W7        30.24R WCI  -5
NEW RICHMOND   CLOUDY     4  -4  69 W3        30.24R
OSCEOLA        PTCLDY     5  -3  69 W6        30.28R WCI  -6
$$

WIZ003>005-009-010-017-018-110600-
NORTH CENTRAL WISCONSIN

CITY           SKY/WX    TMP DP  RH WIND       PRES   REMARKS
MANITOWISH WTR MOCLDY     2  -3  81 NW5       30.08S WCI  -8
ARBOR VITAE    PTCLDY     5  -1  75 CALM      30.08S
WOODRUFF       PTCLDY     5  -1  75 CALM      30.08S
RHINELANDER    MOCLDY     4  -4  69 W8        30.08S WCI  -9
EAGLE RIVER    CLOUDY     6  -1  72 NW6       30.07R WCI  -5
LAND O LAKES   LGT SNOW   6   2  82 W5        30.07S WCI  -3
PHILLIPS       MOCLDY   -11 -15  85 CALM      30.13R
TOMAHAWK       CLOUDY     5  -2  70 NW6       30.13R WCI  -5
MEDFORD        CLEAR     -2  -6  81 N5        30.13R WCI -12
MERRILL        CLOUDY     6  -3  66 N6        30.14R WCI  -4
$$

WIZ029-030-035-036-043>047-110600-
CENTRAL WISCONSIN

CITY           SKY/WX    TMP DP  RH WIND       PRES   REMARKS
WAUSAU         CLOUDY     4  -4  69 NW6       30.13S WCI  -7
MOSINEE        PTCLDY     1  -4  78 CALM      30.15R
MARSHFIELD     CLEAR      3  -6  66 N7        30.14R WCI  -9
STEVENS POINT  CLEAR      3  -6  67 N3        30.16R
WAUPACA        CLEAR      6  -4  60 NW5       30.18R WCI  -2
WAUTOMA        NOT AVBL
WISC RAPIDS    CLEAR      1  -7  68 NW5       30.18R WCI  -9
CAMP DOUGLAS   NOT AVBL
$$

WIZ011>013-019>022-031-037>040-048>050-110600-
NORTHEAST WISCONSIN

CITY           SKY/WX    TMP DP  RH WIND       PRES   REMARKS
ANTIGO         CLOUDY     5  -3  70 N13G18    30.09S WCI -12
SHAWANO        PTCLDY     6  -4  62 CALM      30.17S
OCONTO         CLOUDY     5  -5  61 CALM      30.17R
STURGEON BAY   CLEAR      5  -6  61 NW7       30.16R WCI  -7
GREEN BAY      CLEAR      2  -7  66 NW5       30.17R WCI  -8
MANITOWOC      NOT AVBL
APPLETON       CLEAR      5  -8  56 NW6       30.13S WCI  -6
CLINTONVILLE   CLEAR      9  -6  52 N5        30.16S WCI   0
OSHKOSH        PTCLDY     4  -6  63 NW6       30.16R WCI  -7
$$

WIZ032>034-041-042-053>061-110600-
SOUTHWEST WISCONSIN

CITY           SKY/WX    TMP DP  RH WIND       PRES   REMARKS
LA CROSSE      CLOUDY     6  -3  66 N3        30.24S
SPARTA         CLOUDY     0  -4  82 CALM      30.22S
VIROQUA        CLOUDY     3  -4  70 NW5       30.16R WCI  -6
BOSCOBEL       PTCLDY     7  -2  66 CALM      30.24R
PRAIRIE DU CHI CLOUDY    12  -1  55 N5        30.23S WCI   4
PLATTEVILLE    CLOUDY    10   0  63 N8        30.18S WCI  -1
$$

WIZ056-057-062-063-064-067-068-110600-
SOUTH CENTRAL WISCONSIN

CITY           SKY/WX    TMP DP  RH WIND       PRES   REMARKS
REEDSBURG      CLOUDY     5  -4  67 NW5       30.19R WCI  -4
BARABOO/DELLS  CLOUDY     5  -4  65 NW3       30.17R
LONE ROCK      NOT AVBL
MINERAL POINT  CLOUDY     9  -2  61 CALM      30.16R
MADISON        CLOUDY     7  -3  64 NW5       30.17R WCI  -2
MIDDLETON      CLOUDY     8  -1  67 CALM      30.18R
WATERTOWN      CLEAR      8  -1  65 NW5       30.16R WCI   0
MONROE         CLEAR      9   1  72 NW6       30.15S WCI  -1
JANESVILLE     CLOUDY    12   3  67 CALM      30.17S
$$

WIZ051-052-058>065-066-070>072-110600-
SOUTHEAST WISCONSIN

CITY           SKY/WX    TMP DP  RH WIND       PRES   REMARKS
MILWAUKEE      MOCLDY     9  -2  61 W9        30.16R WCI  -4
WAUKESHA       CLEAR      5  -2  72 W7        30.15S WCI  -7
MILWAUKEE/TIMM PTCLDY     7  -4  61 W5        30.17R WCI  -2
RACINE         CLEAR      9  -2  61 W6        30.17R WCI  -1
BURLINGTON     CLEAR      5  -2  72 W5        30.16S WCI  -4
KENOSHA        CLEAR      5  -2  72 W6        30.16R WCI  -6
FOND DU LAC    CLEAR      4  -5  66 NW9       30.16R WCI -10
SHEBOYGAN      CLEAR      4  -6  63 NW6       30.15R WCI  -7
WEST BEND      CLEAR      5  -4  66 CALM      30.14R
JUNEAU         CLEAR      6  -4  66 NW7       30.16R WCI  -6
$$

LSZ147-162-110600-
LAKE SUPERIOR

STATION/POSITION TIME  TEMP    WIND        PRES    WAVE
                       AIR SEA DIR/SP/G            HT/PER
                 (UTC) (F)     (DEG/KT/KT) (MB)    (FT/S)
DEVILS ISLAND    0400    9     350/ 18/ 21 1024.8R
PORT WING        0400    9     350/ 12/ 17 1023.7S
SAXON HARBOR     0440    8                 1022.4S
$$

LMZ867-665-643>646-110600-
LAKE MICHIGAN

STATION/POSITION TIME  TEMP    WIND        PRES    WAVE
                       AIR SEA DIR/SP/G            HT/PER
                 (UTC) (F)     (DEG/KT/KT) (MB)    (FT/S)
CHAMBERS ISLAND  0400    9     310/ 19/ 23 1020.0R
ALGOMA LAKESHORE 0311          340/  4/  6   N/A
KEWAUNEE LAKESHO 0400    7     330/  5/ 10 1019.9R
SHEBOYGAN LAKESH 0400   10     320/ 11/ 12 1022.6R
PORT WASHINGTON  0400    9     300/  6/  8 1022.0
MILWAUKEE LAKESH 0410   11     300/  9/ 12   N/A
KENOSHA   LAKESH 0400   11     290/  6/  9 1021.3R
$$

TC  - TEMPERATURE IN CELSIUS
VSB - VISIBILITY IN STATUTE MILES
WCI - WIND CHILL INDEX
HX  - HEAT INDEX





USA.gov is the U.S. government's official web portal to all federal, state and local government web resources and services.